Location: Bourgneuf
(46.1677°N, 1.0214°W)
Time: 12:12:13
(UTC+00:00)

Daily predictions for brighter satellites

Satellite Brightness Start Highest point End
(mag) Time Altitude Azimuth Time Altitude Azimuth Time Altitude Azimuth
Cosmos 2344 4.4 17:21:45 10° NW 17:30:32 55° NE 17:42:34 10° ESE
USA 229 DEB 4.0 17:25:12 10° NW 17:32:21 58° NE 17:39:54 10° ESE
USA 229 4.0 17:25:18 10° NW 17:32:27 58° NE 17:40:00 10° ESE
Cosmos 44 3.4 17:27:47 10° SSW 17:32:35 86° SE 17:37:46 10° NE
CZ-3B R/B 2.2 17:31:26 10° NW 17:33:44 40° NNE 17:39:17 10° ESE
SeaSat 1 3.5 17:30:58 10° NNE 17:35:40 45° NW 17:40:20 10° SW
SJ 16-02 1.8 17:31:36 10° SSW 17:35:57 65° WNW 17:40:21 10° NNE
Cosmos 158 Rocket 4.4 17:31:50 10° NNW 17:37:13 76° WSW 17:42:36 10° SSE
Cosmos 2112 Rocket 4.0 17:32:25 10° NNW 17:37:39 66° ENE 17:42:48 10° SSE
FengYun 1-2 T 4.3 17:33:06 10° SSE 17:38:41 82° ENE 17:44:21 10° NNW
Cosmos 990 Rocket 4.0 17:34:18 10° S 17:39:26 63° ESE 17:44:34 10° NNE
YAOGAN 1 3.8 17:36:55 10° ESE 17:40:04 20° ENE 17:43:13 10° NNE
Cosmos 1844 Rocket 3.3 17:35:28 10° SW 17:41:03 61° WNW 17:46:40 10° NNE
H-2A R/B 3.1 17:37:45 10° S 17:41:51 63° WSW 17:46:10 10° NNW
Aureole 3 Rocket 3.6 17:40:10 10° NNE 17:42:59 26° ENE 17:46:20 10° SE
COSMOS 2406 3.5 17:38:34 10° NNW 17:44:07 45° NE 17:49:38 10° SE
Cosmos 2082 Rocket 3.2 17:39:32 10° N 17:44:15 25° NE 17:48:55 10° ESE
Cosmos 1844 4.1 17:39:25 10° SW 17:45:05 69° WNW 17:50:51 10° NNE
Cosmos 1703 3.3 17:43:24 10° S 17:47:10 54° E 17:50:58 10° NNE
NOSS 3-1 (A) 4.1 17:40:43 10° NW 17:48:03 63° NE 17:56:35 10° SE
X-37B 0.9 17:45:02 10° W 17:48:12 67° S 17:51:22 10° ESE
IRS-1C Rocket 4.5 17:44:34 10° SE 17:49:29 41° ENE 17:54:24 10° N
ISS -2.6 17:47:56 10° WNW 17:51:03 32° N 17:53:50 12° ENE
Cosmos 1812 Rocket 3.7 17:47:56 10° N 17:52:13 52° ENE 17:56:27 10° SSE
Meteor 2-1 Rocket 4.4 17:48:31 10° NNW 17:54:03 78° W 17:59:33 10° S
Okean O Rocket 2.1 17:50:50 10° S 17:55:14 67° WSW 17:59:39 10° NNW
ATLAS 5 CENTAUR R/B 4.0 17:54:10 10° NW 17:56:19 13° NNW 17:58:38 10° NNE
CZ-4 R/B 2.0 17:55:59 10° SE 17:59:33 32° ENE 18:03:05 10° N
Iridium 4 Rocket 3.8 17:55:28 10° N 18:00:37 44° E 18:05:18 10° SSE
ERS-2 3.1 17:59:20 10° NE 18:02:29 27° E 18:05:37 10° SSE
SKYMED 2 3.7 17:58:16 10° NNE 18:02:34 56° E 18:06:49 10° S
CZ-4C R/B 4.3 18:02:50 10° NW 18:06:44 17° N 18:11:04 10° NE
Okean-O 3.1 18:03:00 10° SE 18:07:04 36° ENE 18:11:09 10° N
Cosmos 1340 2.5 18:06:55 10° S 18:10:40 83° E 18:14:26 10° NNE
Cosmos 1346 Rocket 3.4 18:07:43 10° SSE 18:11:14 33° E 18:14:48 10° NNE
Cosmos 2278 Rocket 2.5 18:05:54 10° S 18:11:18 49° ESE 18:16:46 10° NE
USA 234 4.2 18:05:52 12° NE 18:11:19 35° N 18:17:07 10° WNW
Cosmos 858 Rocket 4.5 18:08:05 10° SSW 18:13:21 75° ESE 18:18:39 10° NNE
Cosmos 1953 Rocket 4.5 18:11:14 10° SE 18:14:48 25° E 18:17:58 12° NE
CZ-2C R/B 3.2 18:10:03 10° SSE 18:15:31 76° ENE 18:21:17 10° N
SAR-Lupe-4 4.1 18:17:50 15° NE 18:20:28 35° E 18:23:45 10° SSE
Cosmos 44 Rocket 4.3 18:17:24 10° S 18:21:28 27° ESE 18:23:19 21° E
Cosmos 405 2.8 18:18:54 10° N 18:22:27 84° E 18:25:58 10° SSE
Cosmos 1455 4.4 18:19:32 10° NNW 18:22:55 29° W 18:26:17 10° SSW
NOSS 2-1 (E) 3.9 18:20:43 10° WSW 18:23:53 42° NW 18:26:46 13° NNE
Cosmos 1627 Rocket 4.5 18:20:26 10° S 18:26:39 85° E 18:33:00 10° N
TELKOM 3 3.3 18:26:31 10° WNW 18:28:34 41° N 18:28:34 41° N
ARGOS 3.4 18:24:07 10° SE 18:29:09 43° ENE 18:34:15 10° N
Cosmos 1869 4.2 18:27:16 10° NNE 18:30:11 27° ENE 18:30:11 27° ENE
Meteor 2-19 Rocket 4.4 18:24:46 10° S 18:30:52 68° E 18:36:59 10° NNE
PSLV R/B 4.0 18:29:41 10° NNE 18:33:52 59° ESE 18:38:01 10° S
Cosmos 1898 Rocket 4.2 18:29:14 10° SW 18:34:22 54° WNW 18:39:30 10° NNE
Cosmos 372 Rocket 4.0 18:29:52 10° S 18:35:00 63° ESE 18:39:58 11° NNE
Cosmos 1092 Rocket 4.3 18:29:27 10° SSW 18:35:35 69° W 18:41:44 10° N
SAR-Lupe-1 4.1 18:34:04 18° NNE 18:36:34 55° ESE 18:40:05 10° S
CZ-4B R/B 2.4 18:34:17 10° N 18:37:27 44° WNW 18:40:32 10° SW
CZ-2C R/B 3.4 18:33:51 10° NNE 18:38:51 33° E 18:43:51 10° SSE
CZ-2D R/B 4.2 18:36:17 10° S 18:40:01 50° W 18:43:45 10° NNW
Cosmos 2150 Rocket 4.4 18:39:34 10° S 18:44:19 38° ESE 18:45:58 30° ENE
MOS 1 Rocket 3.4 18:41:06 10° N 18:45:21 65° WNW 18:49:40 10° SSW
Cosmos 1048 Rocket 4.1 18:41:40 10° NNW 18:46:39 48° ENE 18:49:36 23° SE
Cosmos-2242 3.1 18:42:50 10° NNW 18:47:08 79° W 18:51:27 10° S
COSMO-SKYMED 1 3.6 18:46:24 10° N 18:50:35 47° WNW 18:54:45 10° SW
Meteor 1-11 4.3 18:45:19 10° SSW 18:50:59 81° W 18:56:39 10° N
Cosmos 1758 Rocket 4.1 18:49:37 10° SSW 18:54:03 61° WNW 18:58:30 10° N
USA 290 3.5 18:52:24 10° NW 18:55:26 41° WSW 18:58:27 10° S
Cosmos 1937 Rocket 4.5 18:51:49 10° SW 18:56:57 48° WNW 19:02:07 10° NNE
SL-08 RB Rocket 3.7 18:59:18 37° SE 19:00:47 55° ENE 19:05:11 10° N
CSL-04 Debris 4.0 18:57:34 10° SSE 19:02:57 81° ENE 19:08:22 10° NNW
Helios 1A Rocket 3.0 19:01:40 10° S 19:05:48 76° WSW 19:09:58 10° NNW
Cosmos 2221 4.5 19:02:35 10° N 19:03:42 17° NNE 19:03:42 17° NNE
H-2A R/B 2.4 19:02:32 10° S 19:07:33 66° W 19:12:45 10° NNW
Cosmos 1833 Rocket 3.5 19:03:18 10° NW 19:08:43 50° WSW 19:14:07 10° S
Cosmos 1125 Rocket 3.7 19:03:58 10° S 19:08:41 46° ESE 19:08:41 46° ESE
Cosmos 1809 Rocket 4.4 19:03:33 10° S 19:09:33 62° E 19:15:38 10° NNE
Cosmos 2298 Rocket 3.9 19:06:15 10° SSW 19:11:32 72° ESE 19:13:35 38° NE
Cosmos 1689 Rocket 3.5 19:13:25 37° W 19:13:25 37° W 19:15:52 10° SW
Cosmos 2266 Rocket 3.9 19:07:37 10° S 19:13:44 60° E 19:19:45 10° NNE
YAOGAN 1 3.6 19:11:42 10° S 19:15:51 46° W 19:20:03 10° NNW
HJ-1C 4.3 19:20:24 45° WNW 19:20:24 45° WNW 19:23:06 10° NNW
In-Cosmos 22 Rocket 4.1 19:17:37 10° S 19:23:24 83° E 19:29:07 10° NNE
X-37B 2.7 19:21:49 10° W 19:23:54 25° SW 19:23:54 25° SW
Cosmos 1943 Rocket 4.2 19:22:29 10° SSE 19:23:18 14° SSE 19:23:18 14° SSE
ISS -1.7 19:25:09 10° WNW 19:26:49 24° NW 19:26:49 24° NW
Cosmos 2082 Rocket 2.6 19:23:09 10° NNW 19:28:49 64° WSW 19:33:42 14° S
Cosmos 1241 Rocket 4.4 19:24:44 10° SSW 19:31:12 83° SE 19:33:16 47° NE
CZ-4 R/B 3.8 19:31:23 10° SSW 19:34:37 23° W 19:37:50 10° NW
ERS-2 4.5 19:33:12 11° NNW 19:35:54 23° WNW 19:38:48 10° WSW
MetOp-A 4.3 19:37:46 57° NNE 19:37:46 57° NNE 19:42:08 10° N
Meteor 2-21 4.3 19:33:14 10° S 19:39:19 88° E 19:45:30 10° N
NOSS 2-2 (E) 4.4 19:36:50 10° NW 19:42:26 83° NE 19:43:31 65° SE
ATLAS 5 CENTAUR R/B 4.3 19:41:14 10° NNW 19:42:29 12° N 19:42:29 12° N
CSL-04 Rocket 4.5 19:38:56 10° S 19:44:13 51° W 19:49:36 10° NNW
Cosmos 2315 Rocket 3.8 19:40:12 10° N 19:46:27 80° E 19:46:33 79° E
Cosmos 883 Rocket 4.4 19:41:03 10° N 19:47:16 86° W 19:50:11 34° S
Meteor 2-14 Rocket 4.3 19:41:15 10° S 19:47:20 85° W 19:53:28 10° N
ATLAS 2AS CENTAUR R/B 4.2 19:41:50 10° NW 19:47:45 23° NNE 19:48:21 23° NNE
USA 234 3.9 19:53:13 40° NNE 19:53:25 41° NNE 19:59:26 10° NW
Cosmos 2278 Rocket 3.8 19:50:36 10° WSW 19:55:36 31° NW 19:59:05 17° N
CZ-4C R/B 4.1 19:52:23 10° NNW 19:56:57 24° NNE 19:56:57 24° NNE
Cosmos 44 Rocket 4.2 19:57:54 10° SW 20:02:05 47° WNW 20:02:05 47° WNW
CZ-2C R/B 3.9 20:15:10 16° N 20:19:12 41° WNW 20:24:25 10° SW
ATLAS 5 CENTAUR R/B 4.4 20:20:36 10° SSW 20:39:15 57° S 20:39:15 57° S
